| time (UTC) | temp F | wind direction | speed knots | gust knots | rain 1hr in | rain 24hr in | rain mn in | humidity % | barometer mb |
| 20260504041428 | 44 | 0 | 0.0 | 0.0 | 0.00 | 0.00 | 0.00 | 85 | 1013.4 |
| 20260504035426 | 45 | 0 | 0.0 | 0.0 | 0.00 | 0.00 | 0.00 | 82 | 1013.3 |
| 20260504034425 | 45 | 0 | 0.0 | 0.0 | 0.00 | 0.00 | 0.00 | 82 | 1013.2 |
| 20260504033424 | 45 | 0 | 0.0 | 0.0 | 0.00 | 0.00 | 0.00 | 81 | 1013.1 |
| 20260504030423 | 47 | 0 | 0.0 | 0.0 | 0.00 | 0.00 | 0.00 | 78 | 1013.2 |
| 20260504024423 | 47 | 0 | 0.0 | 0.0 | 0.00 | 0.00 | 0.00 | 76 | 1013.4 |
| 20260504023422 | 48 | 0 | 0.0 | 0.0 | 0.00 | 0.00 | 0.00 | 75 | 1013.5 |
| 20260504022500 | 49 | 0 | 0.0 | 0.0 | 0.00 | 0.00 | 0.00 | 74 | 1013.5 |
| 20260504022422 | 49 | 0 | 0.0 | 0.0 | 0.00 | 0.00 | 0.00 | 74 | 1013.5 |
| 20260504021420 | 49 | 0 | 0.0 | 0.0 | 0.00 | 0.00 | 0.00 | 73 | 1013.5 |
| 20260504020420 | 50 | 0 | 0.0 | 0.0 | 0.00 | 0.00 | 0.00 | 71 | 1013.6 |
| 20260504015417 | 50 | 0 | 0.0 | 0.0 | 0.00 | 0.00 | 0.00 | 69 | 1013.5 |
| 20260504014417 | 51 | 0 | 0.0 | 0.0 | 0.00 | 0.00 | 0.00 | 69 | 1013.4 |
| 20260504011416 | 52 | 0 | 0.0 | 0.0 | 0.00 | 0.00 | 0.00 | 66 | 1013.3 |
| 20260504005414 | 53 | 0 | 0.0 | 0.0 | 0.00 | 0.00 | 0.00 | 64 | 1013.2 |
| 20260504004412 | 54 | 280 | 0.0 | 3.5 | 0.00 | 0.00 | 0.00 | 63 | 1013.2 |
| 20260504003411 | 54 | 0 | 0.0 | 0.0 | 0.00 | 0.00 | 0.00 | 63 | 1013.4 |
| 20260504002411 | 55 | 0 | 0.0 | 0.0 | 0.00 | 0.00 | 0.00 | 62 | 1013.4 |
| 20260504001409 | 55 | 285 | 0.9 | 6.1 | 0.00 | 0.00 | 0.00 | 61 | 1013.4 |
| 20260503235416 | 56 | 304 | 0.9 | 6.1 | 0.00 | 0.00 | 0.00 | 59 | 1013.5 |
| 20260503234408 | 57 | 274 | 1.7 | 6.1 | 0.00 | 0.00 | 0.00 | 58 | 1013.6 |
| 20260503233408 | 57 | 267 | 1.7 | 7.8 | 0.00 | 0.00 | 0.00 | 57 | 1013.7 |
| 20260503230402 | 58 | 295 | 4.3 | 9.6 | 0.00 | 0.00 | 0.00 | 56 | 1013.7 |
| 20260503225427 | 58 | 263 | 3.5 | 7.8 | 0.00 | 0.00 | 0.00 | 56 | 1013.7 |
| 20260503224418 | 57 | 195 | 2.6 | 7.0 | 0.00 | 0.00 | 0.00 | 56 | 1013.8 |
| 20260503223504 | 58 | 270 | 3.5 | 9.6 | 0.00 | 0.00 | 0.00 | 56 | 1014.0 |
| 20260503222420 | 58 | 264 | 5.2 | 13.9 | 0.00 | 0.00 | 0.00 | 55 | 1014.1 |
| 20260503220412 | 58 | 271 | 6.1 | 13.0 | 0.00 | 0.00 | 0.00 | 55 | 1014.1 |
| 20260503214357 | 59 | 259 | 3.5 | 8.7 | 0.00 | 0.00 | 0.00 | 55 | 1013.8 |
| 20260503213424 | 59 | 200 | 3.5 | 12.2 | 0.00 | 0.00 | 0.00 | 55 | 1013.7 |
| 20260503210355 | 59 | 267 | 7.0 | 13.0 | 0.00 | 0.00 | 0.00 | 56 | 1014.0 |
| 20260503205356 | 57 | 253 | 4.3 | 13.9 | 0.00 | 0.00 | 0.00 | 57 | 1014.1 |
| 20260503204418 | 59 | 274 | 3.5 | 12.2 | 0.00 | 0.00 | 0.00 | 57 | 1014.2 |
| 20260503203357 | 59 | 300 | 4.3 | 10.4 | 0.00 | 0.00 | 0.00 | 56 | 1014.4 |
| 20260503194344 | 57 | 253 | 6.1 | 14.8 | 0.00 | 0.00 | 0.00 | 57 | 1014.9 |
| 20260503193344 | 57 | 277 | 4.3 | 11.3 | 0.00 | 0.00 | 0.00 | 56 | 1015.0 |
| 20260503192353 | 58 | 281 | 5.2 | 12.2 | 0.00 | 0.00 | 0.00 | 57 | 1015.1 |
| 20260503191347 | 57 | 308 | 2.6 | 9.6 | 0.00 | 0.00 | 0.00 | 58 | 1015.2 |
| 20260503190354 | 58 | 278 | 7.0 | 16.5 | 0.00 | 0.00 | 0.00 | 58 | 1015.4 |
| 20260503185345 | 56 | 269 | 6.1 | 13.9 | 0.00 | 0.00 | 0.00 | 56 | 1015.5 |
| 20260503184342 | 57 | 274 | 7.8 | 17.4 | 0.00 | 0.00 | 0.00 | 56 | 1015.6 |
| 20260503183450 | 56 | 278 | 7.0 | 17.4 | 0.00 | 0.00 | 0.00 | 59 | 1015.5 |
| 20260503182357 | 57 | 238 | 2.6 | 8.7 | 0.00 | 0.00 | 0.00 | 60 | 1015.8 |
| 20260503181345 | 58 | 319 | 5.2 | 11.3 | 0.00 | 0.00 | 0.00 | 60 | 1015.9 |
| 20260503180343 | 57 | 269 | 3.5 | 13.9 | 0.00 | 0.00 | 0.00 | 61 | 1016.0 |
| 20260503175505 | 56 | 281 | 6.1 | 13.0 | 0.00 | 0.00 | 0.00 | 60 | 1016.1 |
| 20260503174506 | 57 | 349 | 2.6 | 7.8 | 0.00 | 0.00 | 0.00 | 60 | 1016.1 |
| 20260503173349 | 55 | 294 | 3.5 | 11.3 | 0.00 | 0.00 | 0.00 | 60 | 1016.2 |
| 20260503130325 | 44 | 293 | 2.6 | 5.2 | 0.00 | 0.00 | 0.00 | 92 | 1018.1 |
| 20260503110317 | 34 | 0 | 0.0 | 0.0 | 0.00 | 0.00 | 0.00 | 100 | 1017.0 |
| 20260503090307 | 33 | 0 | 0.0 | 0.0 | 0.00 | 0.00 | 0.00 | 100 | 1016.4 |
| 20260503081303 | 35 | 0 | 0.0 | 0.0 | 0.00 | 0.00 | 0.00 | 100 | 1016.2 |
| 20260503080302 | 35 | 0 | 0.0 | 0.0 | 0.00 | 0.00 | 0.00 | 100 | 1016.3 |
| 20260503072300 | 34 | 0 | 0.0 | 0.0 | 0.00 | 0.00 | 0.00 | 100 | 1016.1 |
| 20260503071300 | 34 | 0 | 0.0 | 0.0 | 0.00 | 0.00 | 0.00 | 100 | 1016.0 |
| 20260503070259 | 34 | 0 | 0.0 | 0.0 | 0.00 | 0.00 | 0.00 | 100 | 1016.0 |
| 20260503060257 | 35 | 0 | 0.0 | 0.0 | 0.00 | 0.00 | 0.00 | 100 | 1016.2 |
| 20260503054327 | 34 | 0 | 0.0 | 0.0 | 0.00 | 0.00 | 0.00 | 99 | 1016.2 |
| 20260503054256 | 34 | 0 | 0.0 | 0.0 | 0.00 | 0.00 | 0.00 | 99 | 1016.2 |
| 20260503053256 | 34 | 0 | 0.0 | 0.0 | 0.00 | 0.00 | 0.00 | 99 | 1016.2 |
| 20260503051255 | 35 | 0 | 0.0 | 0.0 | 0.00 | 0.00 | 0.00 | 99 | 1016.2 |
| 20260503045254 | 36 | 0 | 0.0 | 0.0 | 0.00 | 0.00 | 0.00 | 98 | 1016.3 |
| 20260503044254 | 36 | 0 | 0.0 | 0.0 | 0.00 | 0.00 | 0.00 | 98 | 1016.2 |